Probability
0 0 0 0 0 0 0 0 0 0 0 0 0 0 0 0 0 0 0 1 1 1 0 0 0 0 0 0 0 0 1 0 1 2 2 2 2 3 4 6 6 6 6 6
0 0 0 0 0 0 0 0 0 0 0 0 0 0 0 0 0 0 0 0 0 0 0 0 0 0 0 0 0 0 1 0 0 1 2 3 3 2 3 4 4 5 5 6
0 0 0 0 0 0 0 0 0 0 0 0 0 0 0 0 0 0 0 0 0 0 0 0 0 0 0 0 0 0 0 0 0 0 2 4 3 1 1 1 2 3 4 5
0 0 0 0 0 0 0 0 0 0 0 0 0 0 0 0 0 0 0 0 0 0 0 0 0 0 0 0 0 0 0 0 0 0 2 3 2 1 0 0 0 1 2 3
0 0 0 0 0 0 0 0 0 0 0 0 0 0 0 0 0 0 0 0 0 0 0 0 0 0 0 0 0 1 1 0 0 0 1 1 1 0 0 0 0 0 1 1
0 0 0 0 0 0 0 0 0 0 0 0 0 0 0 0 0 0 0 0 0 0 0 0 0 0 0 0 0 1 1 0 0 0 0 0 0 0 0 0 0 0 0 0
0 0 0 0 0 0 0 0 0 0 0 0 0 0 0 0 0 0 0 0 0 0 0 0 0 0 0 0 0 1 1 0 0 0 0 0 0 0 0 0 0 0 0 0
0 0 0 0 0 0 0 0 0 0 0 0 0 0 0 0 0 0 0 0 0 0 0 0 0 0 0 0 0 0 0 0 0 0 0 0 0 0 0 0 0 0 0 0
0 0 0 0 0 0 0 0 0 0 0 0 0 0 0 0 0 0 0 0 0 0 0 0 0 0 0 0 0 0 0 0 0 0 0 0 0 0 0 0 0 0 0 0
0 0 0 0 0 0 0 0 0 0 0 0 0 0 0 0 0 0 0 0 0 0 0 0 0 0 0 0 0 0 0 0 0 0 0 0 0 0 0 0 0 0 0 0
0 0 0 0 0 0 0 0 0 0 0 0 0 0 0 0 0 0 0 0 0 0 0 0 0 0 0 0 0 0 0 0 0 0 0 0 0 0 0 0 0 0 0 0
0 0 0 0 0 0 0 0 0 0 0 0 0 0 0 0 0 0 0 0 0 0 0 0 0 0 0 0 0 0 0 0 0 0 0 0 0 0 0 0 0 0 0 0
0 0 0 0 0 0 0 0 0 0 0 0 0 0 0 0 0 0 0 0 0 0 0 0 0 0 0 0 0 0 0 0 0 0 0 0 0 0 0 0 0 0 0 0
0 0 0 0 0 0 0 0 0 0 0 0 0 0 0 0 0 0 0 0 0 0 0 0 0 0 0 0 0 0 0 0 0 0 0 0 0 0 0 0 0 0 0 0
0 0 0 0 0 0 0 0 0 0 0 0 0 0 0 0 0 0 0 0 0 0 0 0 0 0 0 0 0 0 0 0 0 0 0 0 0 0 0 0 0 0 0 0
0 0 0 0 0 0 0 0 0 0 0 0 0 0 0 0 0 0 0 0 0 0 0 0 0 0 0 0 0 0 0 0 0 0 0 0 0 0 0 0 0 0 0 0
0 0 0 0 0 0 0 0 0 0 0 0 0 0 0 0 0 0 0 0 0 0 0 0 0 0 0 0 0 0 0 0 0 0 0 0 0 0 0 0 0 0 0 0
0 0 0 0 0 0 0 0 0 0 0 0 0 0 0 0 0 0 0 0 0 0 0 0 0 0 0 0 0 0 0 0 0 0 0 0 0 0 0 0 0 0 0 0
0 0 0 0 0 0 0 0 0 0 0 0 0 0 0 0 0 0 0 0 0 0 0 0 0 0 0 0 0 0 0 0 0 0 0 0 0 0 0 0 0 0 0 0
0 0 0 0 0 0 0 0 0 0 0 0 0 0 0 0 0 0 0 0 0 0 0 0 0 0 0 0 0 0 0 0 0 0 0 0 0 0 0 0 0 0 0 0
0 0 0 0 0 0 0 0 0 0 0 0 0 0 0 0 0 0 0 0 0 0 0 0 0 0 0 0 0 0 0 0 0 0 0 0 0 0 0 0 0 0 0 0
0 0 0 0 0 0 0 0 0 0 0 0 0 0 0 0 0 0 0 0 0 0 0 0 0 0 0 0 0 0 0 0 0 0 0 0 0 0 0 0 0 0 0 0
0 0 0 0 0 0 0 0 0 0 0 0 0 0 0 0 0 0 0 0 0 0 0 0 0 0 0 0 0 0 0 0 0 0 0 0 0 0 0 0 0 0 0 0
0 0 0 0 0 0 0 0 0 0 0 0 0 0 0 0 0 0 0 0 0 0 0 0 0 0 0 0 0 0 0 0 0 0 0 0 0 0 0 0 0 0 0 0
0 0 0 0 0 0 0 0 0 0 0 0 0 0 0 0 0 0 0 0 0 0 0 0 0 0 0 0 0 0 0 0 0 0 0 0 0 0 0 0 0 0 0 0
0 0 0 0 0 0 0 0 0 0 0 0 0 0 0 0 0 0 0 0 0 0 0 0 0 0 0 0 0 0 0 0 0 0 0 0 0 0 0 0 0 0 0 0
Wind_Speed
4 3 5 5 6 6 5 5 6 4 1 4 7 8 6 5 5 5 5 4 4 3 3 3 3 2 2 2 2 2 2 2 1 1 1 1 1 0 0 1 2 2 2 1
3 6 5 3 3 5 5 7 6 4 1 3 6 9 7 6 7 6 5 4 4 3 3 3 3 2 2 2 2 2 2 1 1 1 0 1 1 1 1 1 1 2 2 2
6 2 2 4 4 6 6 6 5 4 4 4 5 7 7 5 6 5 5 4 3 4 4 3 2 2 2 2 1 1 1 1 1 1 1 1 1 1 1 1 1 1 2 2
4 4 3 4 5 5 6 3 4 4 3 4 3 6 5 6 6 6 5 4 4 4 4 4 3 2 2 1 1 1 1 1 1 1 1 2 1 1 1 1 1 1 2 1
3 1 3 5 5 4 3 2 3 5 5 5 5 6 6 5 6 7 6 5 4 4 4 4 3 3 2 2 2 1 1 1 1 1 2 2 2 1 1 2 2 2 1 1
4 2 2 2 1 2 1 1 3 4 3 6 8 7 6 4 6 5 5 5 4 4 5 4 4 3 2 2 2 2 2 2 2 2 2 2 2 2 2 2 1 1 1 1
4 5 3 1 1 2 2 1 1 2 4 7 5 6 6 2 2 5 5 4 4 5 5 4 4 3 2 2 2 2 2 2 2 2 2 2 2 2 2 2 1 1 1 1
3 3 5 3 3 2 5 4 4 3 4 3 2 6 4 2 3 4 4 4 5 4 4 4 3 3 2 2 2 2 2 2 2 2 1 1 1 2 1 2 1 1 1 1
2 1 1 0 1 2 3 5 2 3 3 4 5 4 1 3 3 3 4 4 4 4 4 4 3 3 3 2 2 2 2 2 2 2 2 1 1 2 2 2 2 1 1 1
2 2 2 1 1 3 3 2 1 3 3 4 5 6 4 4 4 3 4 4 4 4 4 4 3 3 3 2 2 2 2 2 2 2 1 1 1 2 2 1 1 1 1 1
2 2 2 2 5 5 4 3 3 3 3 3 4 4 2 2 3 4 3 4 4 4 4 3 3 3 3 2 2 2 2 2 2 2 2 2 1 2 2 1 1 1 1 1
1 2 3 4 2 3 3 4 5 4 5 4 4 6 2 2 3 3 3 3 3 3 3 3 3 3 2 2 2 2 2 2 2 2 2 1 1 1 2 1 1 1 1 1
0 2 2 2 2 2 3 3 3 3 2 4 5 7 0 1 2 2 3 3 3 3 3 3 3 2 2 2 2 2 2 2 1 2 2 2 1 1 1 1 1 1 1 1
1 2 5 5 3 2 4 5 4 4 5 6 8 8 6 4 3 2 2 2 3 3 4 3 3 2 2 2 2 2 2 2 1 2 2 2 1 1 1 1 1 1 1 1
2 3 5 6 5 4 6 7 7 9 9 8 8 8 9 6 4 3 3 3 3 3 4 4 3 3 2 2 2 2 2 2 1 1 2 1 1 2 2 1 1 1 0 0
2 3 3 6 6 6 8 9 10 11 10 11 10 12 8 6 4 4 4 4 4 4 4 4 4 3 3 3 2 2 2 1 2 1 1 1 1 1 1 1 1 0 0 1
3 3 3 4 4 4 9 11 12 9 9 9 12 11 5 5 5 4 4 4 4 4 4 5 4 4 3 3 2 2 2 2 2 2 1 2 1 1 1 1 1 1 1 1
4 4 3 2 2 8 8 2 6 8 9 9 7 6 4 5 4 4 4 4 4 3 3 4 4 3 3 3 2 2 2 2 2 2 2 1 1 1 1 1 1 1 1 1
6 6 4 3 5 9 5 3 3 5 7 7 8 7 5 3 3 5 4 3 3 3 3 3 3 3 3 3 3 3 2 2 2 2 2 1 1 1 1 1 1 1 1 1
4 4 4 4 5 7 4 2 2 2 6 4 5 5 4 1 2 4 2 1 1 1 2 2 2 2 3 3 4 3 3 3 3 2 2 1 2 2 2 2 1 1 1 1
4 5 7 7 7 8 3 2 3 4 6 2 3 3 3 4 5 3 1 1 0 1 2 2 2 3 3 4 4 4 3 3 3 2 2 1 2 2 2 2 1 1 1 1
7 6 7 6 7 8 3 5 6 5 2 1 2 2 3 3 2 1 1 1 0 0 1 2 2 2 2 3 4 4 4 3 2 2 2 2 2 2 1 1 1 1 1 1
6 6 5 7 7 3 4 4 3 2 2 2 2 2 3 3 3 3 2 2 1 1 1 1 2 2 2 3 4 4 3 3 3 2 2 2 2 2 1 2 2 1 1 2
4 2 3 6 7 5 4 4 3 3 4 4 3 3 3 4 4 3 3 2 2 2 2 2 2 2 2 2 3 3 3 3 3 3 3 2 2 2 2 2 2 2 2 2
4 3 5 8 7 6 5 5 5 5 4 4 4 4 4 4 4 4 3 3 3 2 2 2 3 3 3 2 2 2 3 3 3 3 3 2 2 2 2 2 2 3 3 3
5 6 7 8 5 4 5 3 3 4 4 5 4 4 4 4 4 4 4 3 3 3 2 2 3 3 3 2 2 2 3 3 3 3 3 2 2 2 2 2 2 4 5 6
Wind_Direction
189 217 220 220 227 262 296 286 275 277 186 230 245 251 237 215 214 229 231 217 192 169 137 119 121 129 121 112 110 114 116 104 97 117 151 171 190 141 44 93 107 112 100 105
202 233 245 260 257 264 273 272 277 296 283 263 266 265 250 223 218 218 222 209 182 160 142 141 143 128 117 116 118 115 107 111 111 120 169 171 136 128 130 93 99 107 100 86
223 239 234 238 247 252 256 262 271 283 306 266 270 274 236 216 221 211 205 201 178 168 163 159 153 137 117 121 134 130 131 131 139 138 123 101 81 91 103 89 86 72 83 85
246 245 255 249 244 250 256 271 282 278 281 263 229 276 245 212 214 214 201 192 175 154 153 153 144 127 119 112 102 113 122 128 142 150 140 133 137 138 143 126 117 93 89 80
244 246 245 243 251 255 258 336 282 265 264 273 241 252 265 202 218 210 191 180 162 141 140 135 131 122 105 94 116 130 121 128 128 117 124 123 118 128 107 98 96 94 93 93
256 282 293 286 304 278 301 295 262 249 244 253 226 224 267 216 216 190 176 167 152 136 126 117 106 98 89 85 110 128 120 107 109 110 116 125 124 112 101 92 90 89 83 83
237 222 207 227 225 219 223 198 249 231 219 241 218 217 246 239 168 164 162 155 145 132 127 124 121 115 110 110 111 113 103 100 103 99 109 128 138 125 124 128 119 99 71 51
232 227 183 197 224 218 212 216 211 229 240 270 235 228 240 118 87 100 128 134 131 132 131 126 125 125 118 104 110 106 97 88 95 102 107 112 120 125 121 111 111 108 101 82
259 230 66 53 300 279 221 224 262 286 282 273 249 241 226 135 109 116 127 137 144 141 131 127 122 122 124 126 128 128 112 95 88 94 95 92 92 102 109 114 109 102 91 80
294 267 215 184 243 247 262 281 215 211 241 257 252 237 229 187 189 162 155 161 152 138 130 127 129 123 119 118 112 108 114 112 100 87 93 90 80 86 98 97 102 104 92 79
268 230 220 205 214 223 208 223 234 243 238 239 266 263 358 153 167 162 159 146 142 146 146 137 130 118 112 107 109 104 109 113 107 100 90 81 65 68 78 83 92 94 85 88
249 244 241 225 235 289 254 225 203 218 242 239 259 267 338 82 104 115 125 136 142 148 146 142 131 119 115 120 120 111 114 116 124 123 112 105 88 80 79 82 74 71 80 84
221 216 236 251 248 253 259 251 238 237 253 246 248 262 301 102 109 137 152 158 157 157 157 155 145 147 152 151 146 140 132 129 121 120 118 113 107 96 92 85 69 62 67 60
230 228 228 240 254 215 238 245 231 217 230 246 242 257 265 256 255 247 201 179 174 177 178 178 174 175 172 172 162 150 142 133 131 131 131 136 142 134 114 91 74 68 71 72
196 236 245 260 267 260 253 243 230 228 233 239 258 260 263 256 241 240 239 221 198 194 191 195 190 190 186 178 167 151 144 137 133 127 132 139 136 126 119 116 107 82 69 33
204 238 257 262 252 253 263 249 237 240 244 250 266 271 263 259 248 240 233 229 222 209 205 204 200 194 190 183 173 157 156 156 136 138 145 130 128 130 136 149 139 136 269 262
214 216 242 260 257 282 260 231 221 228 227 226 241 252 263 271 256 244 236 233 229 215 204 203 201 196 192 184 173 175 174 161 149 156 162 153 155 155 161 172 174 214 234 241
213 229 238 258 252 244 244 221 201 227 241 233 245 258 256 256 269 266 245 226 231 220 208 203 199 197 187 171 165 159 157 165 167 171 173 164 161 177 185 188 215 240 242 236
218 210 222 220 242 265 257 226 197 212 257 226 230 248 263 283 312 280 240 217 213 206 203 198 191 191 181 172 165 156 169 180 182 180 179 180 180 196 205 217 232 239 244 254
218 210 217 220 235 249 247 192 169 160 268 228 209 231 246 226 264 268 260 223 202 194 188 183 179 178 180 177 163 165 185 191 198 187 188 199 192 199 213 222 234 240 234 241
188 206 219 228 240 257 232 173 136 187 241 239 198 219 218 215 226 252 308 309 163 190 190 175 174 185 192 174 163 177 191 205 195 176 187 208 203 205 210 219 232 230 238 248
187 192 205 210 229 248 184 155 191 219 241 223 209 218 227 243 264 273 269 253 208 207 189 174 178 193 191 175 171 185 205 203 173 174 193 210 211 212 208 201 230 229 221 240
206 201 199 206 222 246 189 210 227 229 258 260 234 248 233 248 254 252 241 230 216 213 218 188 177 187 200 186 177 192 205 178 170 179 197 207 208 203 200 203 222 232 220 232
230 225 242 262 262 259 245 258 268 262 259 266 253 238 227 239 243 238 231 226 218 214 217 200 178 189 211 200 185 196 189 174 175 189 202 204 196 206 217 227 225 227 228 232
227 207 240 258 268 278 260 242 249 257 264 266 263 245 230 229 237 225 222 218 214 215 209 194 193 202 211 197 195 197 186 174 187 199 206 205 203 207 223 236 236 238 236 232
215 214 222 243 245 241 263 258 244 249 253 249 250 257 247 230 234 226 225 218 207 204 199 197 202 209 211 194 197 198 187 181 190 202 204 203 203 211 217 232 260 256 251 262